Caldwell, NJ

12:49 AM EDT on September 18, 2019 (GMT -0400)
Essex County

Weather History for KCDW - May, 2019

Change the Weather History Date:

Wednesday, May 8, 2019

  Actual Average Record
Temperature  
Mean Temperature 64 °F -  
Max Temperature 73 °F 68 °F 93 °F (2000)
Min Temperature 54 °F 42 °F 33 °F (1974)
Degree Days  
Heating Degree Days 2    
Growing Degree Days 14 (Base 50)    
Moisture  
Dew Point 50 °F    
Average Humidity 70    
Maximum Humidity 97    
Minimum Humidity 40    
Precipitation  
Precipitation 0.00 in - - ()
Sea Level Pressure  
Sea Level Pressure 30.22 in    
Wind  
Wind Speed 5 mph (ENE)    
Max Wind Speed 12 mph    
Max Gust Speed -    
Visibility 10 miles    
Events      
Averages and records for this station are not official NWS values.
T = Trace of Precipitation, MM = Missing Value Source: NWS Daily Summary

Daily Weather History Graph

Daily Weather History Graph

Search for Another Location

Airport or City:

Astronomy

May. 08, 2019 Rise Set
Actual Time 5:47 AM EDT 8:00 PM EDT
Civil Twilight 5:16 AM EDT 8:31 PM EDT
Nautical Twilight 4:39 AM EDT 9:08 PM EDT
Astronomical Twilight 3:58 AM EDT 9:50 PM EDT
Moon 8:41 AM EDT (5/8) 11:59 PM EDT (5/8)
Length of Visible Light 15h 14m
Length of Day
14h 13m
Waxing Crescent, 15% of the Moon is Illuminated
May 8
Waxing Crescent
May 11
First Quarter
May 18
Full
May 26
Last Quarter
Jun 3
New

Hourly Weather History & Observations

Time (EDT) Temp. Dew Point Humidity Pressure Visibility Wind Dir Wind Speed Gust Speed Precip Events Conditions
12:53 AM 61.0 °F 60.1 °F 97% 30.17 in 9.0 mi NE 4.6 mph - N/A   Overcast
1:53 AM 60.1 °F 57.9 °F 93% 30.17 in 10.0 mi ENE 4.6 mph - N/A   Overcast
2:53 AM 60.1 °F 57.9 °F 93% 30.17 in 10.0 mi ENE 3.5 mph - N/A   Overcast
3:53 AM 59.0 °F 55.9 °F 90% 30.19 in 10.0 mi NNE 3.5 mph - N/A   Overcast
4:17 AM 57.9 °F 55.0 °F 90% 30.18 in 10.0 mi NE 3.5 mph - N/A   Overcast
4:53 AM 57.9 °F 54.0 °F 87% 30.19 in 10.0 mi ENE 4.6 mph - N/A   Overcast
5:20 AM 57.0 °F 54.0 °F 89% 30.19 in 10.0 mi NE 4.6 mph - N/A   Overcast
5:45 AM 57.0 °F 54.0 °F 89% 30.20 in 10.0 mi Variable 3.5 mph - N/A   Overcast
5:53 AM 57.0 °F 52.0 °F 83% 30.22 in 10.0 mi NE 6.9 mph - N/A   Overcast
6:18 AM 55.9 °F 51.1 °F 84% 30.21 in 10.0 mi NNE 4.6 mph - N/A   Overcast
6:53 AM 55.9 °F 48.9 °F 77% 30.23 in 10.0 mi NNE 5.8 mph - N/A   Mostly Cloudy
7:53 AM 57.9 °F 46.9 °F 67% 30.24 in 10.0 mi NE 8.1 mph - N/A   Partly Cloudy
8:53 AM 59.0 °F 48.0 °F 67% 30.25 in 10.0 mi Variable 3.5 mph - N/A   Mostly Cloudy
9:53 AM 60.1 °F 48.0 °F 64% 30.27 in 10.0 mi Variable 4.6 mph - N/A   Mostly Cloudy
10:53 AM 64.9 °F 48.9 °F 56% 30.26 in 10.0 mi ENE 10.4 mph - N/A   Scattered Clouds
11:53 AM 64.9 °F 48.9 °F 56% 30.26 in 10.0 mi East 8.1 mph - N/A   Partly Cloudy
12:53 PM 64.9 °F 48.0 °F 54% 30.25 in 10.0 mi East 10.4 mph - N/A   Scattered Clouds
1:53 PM 69.1 °F 46.9 °F 45% 30.22 in 10.0 mi ENE 6.9 mph - N/A   Partly Cloudy
2:53 PM 69.1 °F 44.1 °F 40% 30.21 in 10.0 mi Calm Calm - N/A   Partly Cloudy
3:53 PM 71.1 °F 46.9 °F 42% 30.20 in 10.0 mi Calm Calm - N/A   Mostly Cloudy
4:53 PM 72.0 °F 46.0 °F 40% 30.19 in 10.0 mi South 8.1 mph - N/A   Scattered Clouds
5:53 PM 69.1 °F 48.0 °F 47% 30.19 in 10.0 mi SSE 11.5 mph - N/A   Clear
6:53 PM 66.0 °F 48.0 °F 52% 30.20 in 10.0 mi SE 10.4 mph - N/A   Clear
7:53 PM 63.0 °F 48.0 °F 58% 30.22 in 10.0 mi South 6.9 mph - N/A   Clear
8:53 PM 60.1 °F 48.0 °F 64% 30.25 in 10.0 mi NE 3.5 mph - N/A   Clear
9:53 PM 57.9 °F 48.9 °F 72% 30.27 in 10.0 mi Calm Calm - N/A   Clear
10:53 PM 55.0 °F 48.9 °F 80% 30.29 in 10.0 mi Calm Calm - N/A   Clear
11:53 PM 54.0 °F 48.9 °F 83% 30.29 in 10.0 mi Calm Calm - N/A   Clear